Back to catalog

DELTA 1 DEB

AlivePO
NORAD 8084·DEBRIS·🇺🇸 United States

Launched Jul 23, 1972 from Vandenberg Space Force Base

Loading…

Next Passes (next 24 hours)

TLE

FreshSource: Space-Track

Epoch: Sep 14, 2026, 03:30 UTC

1 08084U 72058DK  26257.14585190  .00000516  00000-0  32380-3 0  9998
2 08084  98.6383 328.9723 0538535 126.7872 238.3951 13.53336596633710

Track DELTA 1 DEB in real time with AllMySat

Download on the App Store